N5CSU Weather Reports


time (UTC)temp
C
wind
direction
speed
KPH
gust
KPH
rain 1hr
cm
rain 24hr
cm
rain mn
cm
humidity
%
barometer
mb
20260904133306 26 204 0.0 0.0 0.00 0.00 0.00 89 1014.8
20260904132805 26 189 0.0 0.0 0.00 0.00 0.00 89 1014.8
20260904132301 26 138 0.0 0.0 0.00 0.00 0.00 90 1014.8
20260904131800 26 200 0.0 0.0 0.00 0.00 0.00 90 1014.5
20260904131256 25 183 0.0 0.0 0.00 0.00 0.00 91 1014.8
20260904130755 25 204 0.0 0.0 0.00 0.00 0.00 91 1014.7
20260904130255 25 184 0.0 0.0 0.00 0.00 0.00 91 1014.7
20260904125751 25 137 0.0 0.0 0.00 0.00 0.00 91 1014.7
20260904125247 25 193 0.0 0.0 0.00 0.00 0.00 91 1014.5
20260904124741 25 199 0.0 0.0 0.00 0.00 0.00 91 1014.5
20260904124238 25 199 0.0 0.0 0.00 0.00 0.00 91 1014.6
20260904123737 25 199 0.0 0.0 0.00 0.00 0.00 91 1014.6
20260904123232 25 192 0.0 0.0 0.00 0.00 0.00 91 1014.5
20260904122728 25 202 0.0 0.0 0.00 0.00 0.00 91 1014.4
20260904122222 25 187 0.0 0.0 0.00 0.00 0.00 91 1014.5
20260904121718 25 186 0.0 0.0 0.00 0.00 0.00 91 1014.2
20260904121214 25 202 0.0 0.0 0.00 0.00 0.00 91 1014.4
20260904120710 25 202 0.0 0.0 0.00 0.00 0.00 92 1014.3
20260904120206 25 202 0.0 0.0 0.00 0.00 0.00 91 1014.4
20260904115701 25 202 0.0 0.0 0.00 0.00 0.00 91 1014.1
20260904115201 25 202 0.0 0.0 0.00 0.00 0.00 91 1014.4
20260904114655 25 202 0.0 0.0 0.00 0.00 0.00 91 1014.2
20260904114149 25 209 0.0 0.0 0.00 0.00 0.00 90 1014.2
20260904113644 25 209 0.0 0.0 0.00 0.00 0.00 90 1014.1
20260904113143 25 209 0.0 0.0 0.00 0.00 0.00 90 1014.2
20260904112639 25 209 0.0 0.0 0.00 0.00 0.00 90 1013.9
20260904112135 25 212 0.0 0.0 0.00 0.00 0.00 90 1014.0
20260904111630 25 206 0.0 0.0 0.00 0.00 0.00 90 1013.8
20260904111126 25 199 0.0 0.0 0.00 0.00 0.00 89 1014.0
20260904110620 25 198 0.0 0.0 0.00 0.00 0.00 89 1014.0
20260904110120 25 201 0.0 0.0 0.00 0.00 0.00 89 1013.9
20260904105614 25 201 0.0 0.0 0.00 0.00 0.00 88 1013.9
20260904105109 25 201 0.0 0.0 0.00 0.00 0.00 88 1013.9
20260904104605 25 201 0.0 0.0 0.00 0.00 0.00 88 1014.1
20260904104100 25 201 0.0 0.0 0.00 0.00 0.00 88 1014.0
20260904103555 25 204 0.0 0.0 0.00 0.00 0.00 87 1013.7
20260904103052 25 204 0.0 0.0 0.00 0.00 0.00 88 1013.7
20260904102548 25 204 0.0 0.0 0.00 0.00 0.00 88 1013.8
20260904102042 25 204 0.0 0.0 0.00 0.00 0.00 88 1013.8
20260904101539 25 201 0.0 0.0 0.00 0.00 0.00 88 1013.7
20260904101034 25 194 0.0 0.0 0.00 0.00 0.00 87 1013.7
20260904100530 25 198 0.0 0.0 0.00 0.00 0.00 87 1013.7
20260904100025 25 203 0.0 0.0 0.00 0.00 0.00 87 1013.6
20260904095520 25 203 0.0 0.0 0.00 0.00 0.00 87 1013.5
20260904095015 25 206 0.0 0.0 0.00 0.00 0.00 87 1013.6
20260904094509 25 208 0.0 0.0 0.00 0.00 0.00 87 1013.4
20260904094005 25 207 0.0 0.0 0.00 0.00 0.00 86 1013.6
20260904093502 25 209 0.0 0.0 0.00 0.00 0.00 86 1013.4
20260904092956 25 209 0.0 0.0 0.00 0.00 0.00 86 1013.4
20260904092453 25 212 0.0 0.0 0.00 0.00 0.00 86 1013.8
20260904091948 25 208 0.0 0.0 0.00 0.00 0.00 86 1013.6
20260904091444 25 189 0.0 0.0 0.00 0.00 0.00 85 1013.6
20260904090938 25 209 0.0 0.0 0.00 0.00 0.00 85 1013.8
20260904090434 25 208 0.0 0.0 0.00 0.00 0.00 85 1013.7
20260904085929 25 187 0.0 0.0 0.00 0.00 0.00 85 1013.7
20260904085424 25 199 0.0 0.0 0.00 0.00 0.00 85 1013.6
20260904084919 25 201 0.0 0.0 0.00 0.00 0.00 85 1013.5
20260904084416 25 200 0.0 0.0 0.00 0.00 0.00 85 1013.5
20260904083910 25 201 0.0 0.0 0.00 0.00 0.00 85 1013.7
20260904083407 25 200 0.0 0.0 0.00 0.00 0.00 84 1013.6
20260904082857 25 196 0.0 0.0 0.00 0.00 0.00 84 1013.6
20260904082357 25 198 0.0 0.0 0.00 0.00 0.00 84 1013.6
20260904081852 25 194 0.0 0.0 0.00 0.00 0.00 84 1013.4
20260904081347 25 191 0.0 0.0 0.00 0.00 0.00 84 1013.4
20260904080843 25 189 0.0 0.0 0.00 0.00 0.00 84 1013.4
20260904080339 25 198 0.0 0.0 0.00 0.00 0.00 84 1013.4
20260904075835 25 198 0.0 0.0 0.00 0.00 0.00 83 1013.7
20260904075330 25 189 0.0 0.0 0.00 0.00 0.00 84 1013.4
20260904074829 25 202 0.0 0.0 0.00 0.00 0.00 83 1013.4
20260904074324 25 202 0.0 0.0 0.00 0.00 0.00 83 1013.3
20260904073819 25 194 0.0 0.0 0.00 0.00 0.00 83 1013.2
20260904073315 25 204 0.0 0.0 0.00 0.00 0.00 83 1013.4
20260904072811 26 200 0.0 0.0 0.00 0.00 0.00 83 1013.5
20260904072310 26 200 0.0 0.0 0.00 0.00 0.00 83 1013.5
20260904071805 26 202 0.0 0.0 0.00 0.00 0.00 83 1013.4
20260904071300 26 203 0.0 0.0 0.00 0.00 0.00 82 1013.3
20260904070755 26 204 0.0 0.0 0.00 0.00 0.00 82 1013.4
20260904070254 26 204 0.0 0.0 0.00 0.00 0.00 82 1013.3
20260904065749 26 209 0.0 0.0 0.00 0.00 0.00 82 1013.7
20260904065246 26 207 0.0 0.0 0.00 0.00 0.00 81 1013.8
20260904064745 26 189 0.0 0.0 0.00 0.00 0.00 81 1013.8
20260904064241 26 203 0.0 0.0 0.00 0.00 0.00 81 1013.8
20260904063737 26 202 0.0 0.0 0.00 0.00 0.00 80 1013.6
20260904063233 26 195 0.0 0.0 0.00 0.00 0.00 80 1013.9
20260904062728 26 202 0.0 0.0 0.00 0.00 0.00 80 1013.6
20260904062224 26 224 0.0 0.0 0.00 0.00 0.00 79 1013.6
20260904061720 26 201 0.0 0.0 0.00 0.00 0.00 79 1013.7
20260904061216 26 205 0.0 0.0 0.00 0.00 0.00 79 1013.6
20260904060713 26 197 0.0 0.0 0.00 0.00 0.00 78 1013.6
20260904060208 26 210 0.0 0.0 0.00 0.00 0.00 78 1013.5
20260904055703 26 235 0.0 0.0 0.00 0.00 0.00 78 1013.8
20260904055158 26 214 0.0 0.0 0.00 0.00 0.00 78 1013.7
20260904054654 26 195 0.0 0.0 0.00 0.00 0.00 77 1013.7
20260904054150 26 202 0.0 0.0 0.00 0.00 0.00 77 1013.8
20260904053650 27 203 0.0 0.0 0.00 0.00 0.00 77 1013.6
20260904053144 27 129 0.0 0.0 0.00 0.00 0.00 77 1013.6
20260904052641 27 358 0.0 0.0 0.00 0.00 0.00 77 1013.6
20260904052136 27 201 0.0 0.0 0.00 0.00 0.00 76 1013.6
20260904051633 27 191 0.0 0.0 0.00 0.00 0.00 76 1013.7
20260904051132 27 207 0.0 0.0 0.00 0.00 0.00 76 1013.6
20260904050628 27 195 0.0 0.0 0.00 0.00 0.00 75 1013.7
20260904050125 27 217 0.0 0.0 0.00 0.00 0.00 75 1013.6
20260904045624 27 199 0.0 0.0 0.00 0.00 0.00 75 1013.5
20260904045119 27 209 0.0 0.0 0.00 0.00 0.00 75 1013.7
20260904044614 27 184 0.0 0.0 0.00 0.00 0.00 75 1013.8
20260904044111 27 192 0.0 0.0 0.00 0.00 0.00 75 1013.5
20260904043607 27 193 0.0 0.0 0.00 0.00 0.00 76 1013.8
20260904043103 27 203 0.0 0.0 0.00 0.00 0.00 75 1013.7
20260904042559 27 179 1.6 1.6 0.00 0.00 0.00 75 1013.6
20260904042054 27 226 0.0 0.0 0.00 0.00 0.00 75 1013.9
20260904041550 27 203 0.0 0.0 0.00 0.00 0.00 74 1013.8
20260904041046 27 214 0.0 0.0 0.00 0.00 0.00 74 1013.7
20260904040546 27 180 0.0 1.6 0.00 0.00 0.00 74 1013.8
20260904040042 27 200 0.0 0.0 0.00 0.00 0.00 73 1013.7
20260904035537 27 198 0.0 0.0 0.00 0.00 0.00 73 1013.7
20260904035036 27 185 0.0 0.0 0.00 0.00 0.00 72 1013.6
20260904034531 27 196 0.0 0.0 0.00 0.00 0.00 72 1013.7
20260904034027 27 199 0.0 1.6 0.00 0.00 0.00 71 1013.9
20260904033523 27 190 0.0 0.0 0.00 0.00 0.00 70 1014.0
20260904033020 27 197 0.0 0.0 0.00 0.00 0.00 70 1013.8
20260904032514 27 84 1.6 3.2 0.00 0.00 0.00 69 1013.7
20260904032014 27 204 0.0 0.0 0.00 0.00 0.00 69 1013.9
20260904031509 27 203 0.0 0.0 0.00 0.00 0.00 69 1013.7
20260904031005 27 211 0.0 0.0 0.00 0.00 0.00 69 1013.5
20260904030500 27 200 0.0 0.0 0.00 0.00 0.00 69 1013.7
20260904025955 27 193 0.0 0.0 0.00 0.00 0.00 69 1013.6
20260904025451 27 198 0.0 0.0 0.00 0.00 0.00 69 1013.7
20260904024951 27 219 0.0 0.0 0.00 0.00 0.00 68 1013.5
20260904024446 27 222 0.0 1.6 0.00 0.00 0.00 68 1013.6
20260904023942 27 210 0.0 0.0 0.00 0.00 0.00 68 1013.3
20260904023438 27 202 0.0 0.0 0.00 0.00 0.00 69 1013.1
20260904022938 28 187 0.0 1.6 0.00 0.00 0.00 68 1013.2
20260904022434 28 198 0.0 0.0 0.00 0.00 0.00 68 1013.0
20260904021931 28 172 0.0 1.6 0.00 0.00 0.00 68 1012.9
20260904021426 28 185 0.0 0.0 0.00 0.00 0.00 68 1012.8
20260904020921 28 198 0.0 0.0 0.00 0.00 0.00 68 1012.7
20260904020417 28 181 0.0 0.0 0.00 0.00 0.00 68 1012.8
20260904015915 28 187 0.0 0.0 0.00 0.00 0.00 68 1012.7
20260904015411 28 192 0.0 0.0 0.00 0.00 0.00 69 1012.6
20260904014909 28 210 0.0 0.0 0.00 0.00 0.00 70 1012.6
20260904014405 28 210 0.0 0.0 0.00 0.00 0.00 71 1012.4
20260904013900 28 203 0.0 0.0 0.00 0.00 0.00 73 1012.4
20260904013356 28 195 0.0 0.0 0.00 0.00 0.00 73 1012.4
20260904012851 28 195 0.0 0.0 0.00 0.00 0.00 72 1012.5
20260904012346 28 198 0.0 0.0 0.00 0.00 0.00 72 1012.4
20260904011845 28 202 0.0 0.0 0.00 0.00 0.00 72 1012.4
20260904011341 29 216 1.6 1.6 0.00 0.00 0.00 71 1012.2
20260904010836 29 203 0.0 1.6 0.00 0.00 0.00 72 1012.1
20260904010332 29 191 0.0 1.6 0.00 0.00 0.00 71 1012.1
20260904005827 29 195 1.6 1.6 0.00 0.00 0.00 70 1012.1
20260904005323 29 185 0.0 0.0 0.00 0.00 0.00 69 1012.0
20260904004817 30 154 1.6 1.6 0.00 0.00 0.00 68 1012.1
20260904004314 30 199 0.0 0.0 0.00 0.00 0.00 67 1012.0
20260904003814 30 99 0.0 0.0 0.00 0.00 0.00 66 1012.1
20260904003310 30 213 0.0 0.0 0.00 0.00 0.00 65 1012.1
20260904002805 30 187 0.0 0.0 0.00 0.00 0.00 64 1012.0
20260904002301 30 240 0.0 0.0 0.00 0.00 0.00 64 1011.9
20260904001800 30 188 1.6 3.2 0.00 0.00 0.00 65 1012.0
20260904001255 30 198 0.0 0.0 0.00 0.00 0.00 65 1011.9
20260904000751 30 203 0.0 0.0 0.00 0.00 0.00 64 1011.9
20260904000248 30 200 0.0 0.0 0.00 0.00 0.00 66 1011.7
20260903235745 30 199 0.0 0.0 0.00 0.00 0.00 66 1011.8
20260903235242 30 196 0.0 0.0 0.00 0.00 0.00 66 1011.7
20260903234741 31 195 0.0 0.0 0.00 0.00 0.00 65 1011.9
20260903234237 31 168 1.6 3.2 0.00 0.00 0.00 65 1011.8
20260903233733 31 163 1.6 3.2 0.00 0.00 0.00 64 1011.9
20260903233229 31 113 1.6 1.6 0.00 0.00 0.00 64 1011.6
20260903232727 31 176 0.0 1.6 0.00 0.00 0.00 64 1011.7
20260903232224 31 212 0.0 0.0 0.00 0.00 0.00 65 1011.5
20260903231723 31 175 0.0 0.0 0.00 0.00 0.00 66 1011.6
20260903231218 31 189 0.0 0.0 0.00 0.00 0.00 65 1011.5
20260903230713 31 228 0.0 1.6 0.00 0.00 0.00 65 1011.5
20260903230208 32 181 3.2 3.2 0.00 0.00 0.00 63 1011.7
20260903225705 32 173 0.0 0.0 0.00 0.00 0.00 63 1011.6
20260903225201 32 192 1.6 1.6 0.00 0.00 0.00 60 1011.4
20260903224657 32 204 0.0 1.6 0.00 0.00 0.00 59 1011.3
20260903224152 32 180 3.2 3.2 0.00 0.00 0.00 59 1011.5
20260903223648 32 203 0.0 0.0 0.00 0.00 0.00 59 1011.3
20260903223146 32 191 0.0 0.0 0.00 0.00 0.00 60 1011.3
20260903222646 32 212 0.0 1.6 0.00 0.00 0.00 60 1011.3
20260903222144 32 196 1.6 3.2 0.00 0.00 0.00 59 1011.4
20260903221640 32 65 0.0 0.0 0.00 0.00 0.00 59 1011.2
20260903221138 32 184 0.0 0.0 0.00 0.00 0.00 60 1011.3
20260903220637 32 201 1.6 3.2 0.00 0.00 0.00 60 1011.3
20260903220132 32 198 0.0 0.0 0.00 0.00 0.00 59 1011.5
20260903215631 32 207 0.0 0.0 0.00 0.00 0.00 61 1011.6
20260903215126 32 208 3.2 3.2 0.00 0.00 0.00 63 1011.5
20260903214625 32 177 0.0 0.0 0.00 0.00 0.00 62 1011.7
20260903214121 32 205 0.0 0.0 0.00 0.00 0.00 63 1011.7
20260903213616 32 47 1.6 1.6 0.00 0.00 0.00 62 1011.8
20260903213111 32 189 0.0 1.6 0.00 0.00 0.00 63 1012.0
20260903212607 32 256 0.0 0.0 0.00 0.00 0.00 63 1012.1
20260903212102 32 187 0.0 1.6 0.00 0.00 0.00 64 1011.9
20260903211556 32 205 0.0 0.0 0.00 0.00 0.00 64 1012.1
20260903211053 31 199 0.0 0.0 0.00 0.00 0.00 64 1012.0
20260903210548 32 204 0.0 0.0 0.00 0.00 0.00 64 1012.2
20260903210045 32 56 4.8 6.4 0.00 0.00 0.00 63 1011.9
20260903205543 32 203 0.0 0.0 0.00 0.00 0.00 64 1012.1
20260903205038 32 169 0.0 1.6 0.00 0.00 0.00 63 1012.1
20260903204534 32 22 1.6 1.6 0.00 0.00 0.00 64 1012.1
20260903204029 32 206 0.0 1.6 0.00 0.00 0.00 64 1012.3
20260903203525 31 179 0.0 1.6 0.00 0.00 0.00 67 1012.4
20260903203024 31 183 0.0 0.0 0.00 0.00 0.00 67 1012.7
20260903202520 31 237 0.0 1.6 0.00 0.00 0.00 66 1012.7
20260903202015 31 175 0.0 1.6 0.00 0.00 0.00 66 1012.5
20260903201510 32 210 0.0 1.6 0.00 0.00 0.00 65 1012.5
20260903201009 32 197 1.6 3.2 0.00 0.00 0.00 64 1012.7
20260903200504 32 199 0.0 0.0 0.00 0.00 0.00 65 1012.7
20260903195959 31 194 0.0 0.0 0.00 0.00 0.00 66 1012.6
20260903195455 31 226 1.6 3.2 0.00 0.00 0.00 66 1012.4
20260903194950 31 200 1.6 1.6 0.00 0.00 0.00 66 1012.9
20260903194445 31 242 1.6 1.6 0.00 0.00 0.00 67 1012.8
20260903193941 31 188 1.6 3.2 0.00 0.00 0.00 66 1012.7
20260903193437 31 173 0.0 1.6 0.00 0.00 0.00 67 1012.8
20260903192932 31 163 1.6 1.6 0.00 0.00 0.00 68 1013.1
20260903192429 31 207 0.0 0.0 0.00 0.00 0.00 68 1013.0
20260903191924 30 206 0.0 1.6 0.00 0.00 0.00 70 1013.1
20260903191420 30 182 1.6 3.2 0.00 0.00 0.00 70 1013.2
20260903190919 30 196 0.0 0.0 0.00 0.00 0.00 71 1013.1
20260903190414 30 208 0.0 0.0 0.00 0.00 0.00 70 1013.3
20260903185913 30 186 1.6 1.6 0.00 0.00 0.00 70 1013.2
20260903185409 30 187 1.6 1.6 0.00 0.00 0.00 70 1013.2
20260903184904 30 157 1.6 1.6 0.00 0.00 0.00 71 1013.4
20260903184401 30 208 0.0 0.0 0.00 0.00 0.00 71 1013.5
20260903183900 30 186 1.6 1.6 0.00 0.00 0.00 71 1013.6
20260903183355 30 230 0.0 1.6 0.00 0.00 0.00 72 1013.6
20260903182855 30 186 1.6 3.2 0.00 0.00 0.00 73 1013.8
20260903182353 29 196 0.0 1.6 0.00 0.00 0.00 74 1013.9
20260903181848 29 184 0.0 1.6 0.00 0.00 0.00 73 1013.9
20260903181343 29 209 1.6 1.6 0.00 0.00 0.00 74 1014.0
20260903180838 29 192 0.0 0.0 0.00 0.00 0.00 74 1014.0
20260903180337 28 233 3.2 4.8 0.00 0.00 0.00 74 1014.1
20260903175831 28 188 1.6 1.6 0.00 0.00 0.00 75 1014.2
20260903175330 28 200 1.6 1.6 0.00 0.00 0.00 76 1014.3
20260903174825 28 181 3.2 4.8 0.00 0.00 0.00 76 1014.3
20260903174321 28 213 1.6 3.2 0.00 0.00 0.00 76 1014.2
20260903173815 28 209 0.0 1.6 0.00 0.00 0.00 77 1014.3
20260903173311 28 203 0.0 1.6 0.00 0.00 0.00 77 1014.5
20260903172807 28 210 0.0 0.0 0.00 0.00 0.00 78 1014.6
20260903172301 27 230 0.0 0.0 0.00 0.00 0.00 80 1014.6
20260903171756 28 334 1.6 3.2 0.00 0.00 0.00 80 1014.9
20260903171252 28 216 0.0 0.0 0.00 0.00 0.00 80 1014.7
20260903170750 28 177 3.2 3.2 0.00 0.00 0.00 80 1014.6
20260903170246 28 196 0.0 0.0 0.00 0.00 0.00 79 1014.8
20260903165744 28 211 1.6 3.2 0.00 0.00 0.00 79 1014.3
20260903165239 28 174 1.6 3.2 0.00 0.00 0.00 79 1014.4
20260903164739 28 187 0.0 1.6 0.00 0.00 0.00 80 1014.4
20260903164235 28 195 0.0 0.0 0.00 0.00 0.00 80 1014.5
20260903163734 28 172 0.0 0.0 0.00 0.00 0.00 80 1014.4
20260903163231 28 186 0.0 0.0 0.00 0.00 0.00 80 1014.3
20260903162726 28 204 0.0 0.0 0.00 0.00 0.00 81 1014.3
20260903162222 28 194 0.0 0.0 0.00 0.00 0.00 82 1014.3
20260903161718 28 160 0.0 0.0 0.00 0.00 0.00 82 1014.4
20260903161213 27 185 0.0 0.0 0.00 0.00 0.00 83 1014.2
20260903160709 27 195 0.0 0.0 0.00 0.00 0.00 84 1014.1
20260903160202 27 190 0.0 0.0 0.00 0.00 0.00 83 1014.2
20260903155701 27 207 0.0 0.0 0.00 0.00 0.00 84 1014.3
20260903155156 27 215 0.0 0.0 0.00 0.00 0.00 84 1014.2
20260903154652 27 187 0.0 0.0 0.00 0.00 0.00 85 1014.3
20260903154148 27 198 0.0 0.0 0.00 0.00 0.00 85 1014.3
20260903153644 27 175 0.0 0.0 0.00 0.00 0.00 86 1014.3
20260903153139 27 196 0.0 0.0 0.00 0.00 0.00 85 1014.3
20260903152635 27 189 0.0 0.0 0.00 0.00 0.00 85 1014.0
20260903152131 27 208 0.0 0.0 0.00 0.00 0.00 86 1014.1
20260903151631 27 231 0.0 0.0 0.00 0.00 0.00 86 1014.2
20260903151125 27 212 0.0 0.0 0.00 0.00 0.00 86 1014.1
20260903150620 27 185 0.0 0.0 0.00 0.00 0.00 86 1014.3
20260903150115 27 202 0.0 0.0 0.00 0.00 0.00 86 1014.3
20260903145615 27 203 1.6 1.6 0.00 0.00 0.00 86 1014.1
20260903145110 27 198 0.0 0.0 0.00 0.00 0.00 86 1014.4
20260903144609 27 250 0.0 0.0 0.00 0.00 0.00 86 1014.1
20260903144105 27 192 0.0 0.0 0.00 0.00 0.00 86 1014.3
20260903143601 27 199 0.0 0.0 0.00 0.00 0.00 86 1014.2
20260903143057 27 195 0.0 0.0 0.00 0.00 0.00 86 1014.2
20260903142552 27 221 0.0 0.0 0.00 0.00 0.00 86 1014.2
20260903142049 27 179 1.6 1.6 0.00 0.00 0.00 86 1014.1
20260903141544 26 174 0.0 0.0 0.00 0.00 0.00 87 1014.3
20260903141039 26 178 0.0 0.0 0.00 0.00 0.00 87 1014.2
20260903140534 26 161 0.0 0.0 0.00 0.00 0.00 87 1014.2
20260903140029 26 191 1.6 1.6 0.00 0.00 0.00 88 1014.3
20260903135525 26 195 0.0 0.0 0.00 0.00 0.00 88 1014.5
20260903135025 26 190 0.0 0.0 0.00 0.00 0.00 88 1014.3
20260903134524 26 189 0.0 0.0 0.00 0.00 0.00 88 1014.5
20260903134020 26 89 0.0 0.0 0.00 0.00 0.00 88 1014.4
20260903133518 26 189 0.0 0.0 0.00 0.00 0.00 88 1014.4